Погода в Тель-Авиве

Израиль     32°05′07″N   34°46′55″E
темп.,
°C
ветер,
м/с
пор.,
м/с
влажн.,
%
обл.,
%
осадки,
мм/ч
давл.,
гПа
погр.,
м
18 апреля, вс
вс1800:00+20ссз577410 0.0 1016114
03:00+19ссз22725 0.0 101536
06:00+19ю33670 0.0 101443
09:00+23зсз32540 0.0 1016103
12:00+27сз22390 0.0 1015318
15:00+26с56451 0.0 1014182
18:00+27ссв57400 0.0 1012125
21:00+25ссв57480 0.0 101364
19 апреля, пн
пн1900:00+25св33385 0.0 101316
03:00+26в332893 0.0 101119
06:00+25юв2230100 0.0 101111
09:00+29ююв2328100 0.0 1012125
12:00+35ююз4721100 0.0 10111512
15:00+32зсз452891 0.0 1009879
18:00+29ссв4534100 0.0 100891
21:00+28ссв3330100 0.0 100921
20 апреля, вт
вт2000:00+29вюв5625100 0.0 100843
03:00+25ю224387 0.0 100822
06:00+22зюз4555100 0.0 100959
09:00+21з44735 0.0 1013323
12:00+22з557459 0.0 1014486
15:00+21сз6666100 0.0 1014537
18:00+20ссз566566 0.0 1015524
21:00+19ссз45710 0.0 1016348
21 апреля, ср
ср2100:00+18ссз33693 0.0 1017314
03:00+18ссз33725 0.0 1017296
06:00+17с23735 0.0 1017370
09:00+19с226280 0.0 1018609
12:00+21сз4454100 0.0 1018631
15:00+21ссз665198 0.0 1017569
18:00+20с676019 0.0 1017567
21:00+18с566713 0.0 1019409
22 апреля, чт
чт2200:00+17ссв237160 0.0 1019341
03:00+17всв337397 0.0 1018240
06:00+17ссв2374100 0.0 1018281
09:00+19ссв34626 0.0 1019568
12:00+21ссз555112 0.0 1019600
15:00+21ссз66495 0.0 1018559
18:00+20с67560 0.0 1018506
21:00+18ссв35665 0.0 1018297